Winner, SD

5:07 PM CDT on March 28, 2017 (GMT -0500)
Winner

Weather History for KICR - February, 2014

Change the Weather History Date:

Monday, February 3, 2014

  Actual Average Record
Temperature  
Mean Temperature 16 °F 25 °F  
Max Temperature 26 °F 36 °F 57 °F (2013)
Min Temperature 5 °F 15 °F 4 °F (2009)
Degree Days  
Heating Degree Days 49 40  
Month to date heating degree days 144 120  
Since 1 July heating degree days 4216 4075  
Cooling Degree Days 0 0  
Month to date cooling degree days 0 0  
Year to date cooling degree days 0 0  
Moisture  
Dew Point 8 °F    
Average Humidity 67    
Maximum Humidity 84    
Minimum Humidity 50    
Precipitation  
Precipitation T in 0.01 in 0.02 in (2012)
Month to date precipitation T 0.05  
Year to date precipitation 0.02 0.30  
Sea Level Pressure  
Sea Level Pressure 30.23 in    
Wind  
Wind Speed 10 mph (NE)    
Max Wind Speed 20 mph    
Max Gust Speed 23 mph    
Visibility 7 miles    
Events Snow    
T = Trace of Precipitation, MM = Missing Value Source: NWS Daily Summary

Daily Weather History Graph

Daily Weather History Graph

Search for Another Location

Airport or City:

Trip Planner

Search our weather history database for the weather conditions in past years. The results will help you decide how hot, cold, wet, or windy it might be!

Date:

Astronomy

Feb. 03, 2014 Rise Set
Actual Time 7:52 AM CST 5:53 PM CST
Civil Twilight 7:22 AM CST 6:24 PM CST
Nautical Twilight 6:48 AM CST 6:58 PM CST
Astronomical Twilight 6:15 AM CST 7:31 PM CST
Moon 9:47 AM CST (2/3) 10:56 PM CST (2/3)
Length of Visible Light 11h 01m
Length of Day
10h 00m
Waxing Crescent, 20% of the Moon is Illuminated
Feb 3
Waxing Crescent
Feb 6
First Quarter
Feb 14
Full
Feb 22
Last Quarter
Mar 1
New

Hourly Weather History & Observations

Time (CST) Temp. Windchill Dew Point Humidity Pressure Visibility Wind Dir Wind Speed Gust Speed Precip Events Conditions
12:53 AM 10.9 °F 1.4 °F 5.0 °F 77% 30.21 in 10.0 mi NNW 5.8 mph - N/A   Clear
1:53 AM 12.0 °F 5.9 °F 5.0 °F 73% 30.21 in 10.0 mi WNW 3.5 mph - N/A   Clear
2:53 AM 9.0 °F -0.9 °F 3.9 °F 80% 30.21 in 10.0 mi West 5.8 mph - N/A   Clear
3:53 AM 9.0 °F -0.9 °F 3.0 °F 77% 30.21 in 10.0 mi WSW 5.8 mph - N/A   Partly Cloudy
4:53 AM 10.0 °F 3.6 °F 3.9 °F 76% 30.20 in 10.0 mi West 3.5 mph - N/A   Clear
5:53 AM 10.0 °F 0.4 °F 3.9 °F 76% 30.22 in 10.0 mi WSW 5.8 mph - N/A   Scattered Clouds
6:53 AM 10.0 °F - 3.9 °F 76% 30.21 in 10.0 mi Calm Calm - N/A   Clear
7:53 AM 7.0 °F 0.1 °F 1.9 °F 80% 30.22 in 10.0 mi SE 3.5 mph - N/A   Clear
8:53 AM 9.0 °F - 3.9 °F 80% 30.24 in 10.0 mi Calm Calm - N/A   Clear
9:53 AM 12.9 °F 5.2 °F 7.0 °F 77% 30.25 in 10.0 mi East 4.6 mph - N/A   Clear
10:53 AM 16.0 °F 2.9 °F 8.1 °F 71% 30.25 in 10.0 mi ESE 11.5 mph - N/A   Partly Cloudy
11:53 AM 19.9 °F 8.6 °F 9.0 °F 62% 30.22 in 10.0 mi East 10.4 mph - N/A   Mostly Cloudy
12:53 PM 21.9 °F 11.7 °F 8.1 °F 55% 30.20 in 10.0 mi East 9.2 mph - N/A   Overcast
1:53 PM 24.1 °F 11.5 °F 8.1 °F 51% 30.17 in 10.0 mi East 15.0 mph - N/A   Overcast
2:53 PM 25.0 °F 12.6 °F 8.1 °F 49% 30.18 in 10.0 mi East 15.0 mph 21.9 mph N/A   Overcast
3:53 PM 25.0 °F 11.7 °F 8.1 °F 49% 30.17 in 10.0 mi East 17.3 mph - N/A   Overcast
4:53 PM 21.9 °F 8.2 °F 9.0 °F 58% 30.20 in 10.0 mi ENE 16.1 mph - N/A   Overcast
5:53 PM 19.9 °F 6.2 °F 9.0 °F 62% 30.22 in 10.0 mi ENE 15.0 mph - 0.00 in   Overcast
6:53 PM 17.1 °F 1.5 °F 10.9 °F 77% 30.25 in 6.0 mi NE 17.3 mph - 0.00 in Snow Light Snow
7:53 PM 16.0 °F 0.6 °F 10.9 °F 81% 30.29 in 10.0 mi NNE 16.1 mph - 0.00 in   Overcast
8:08 PM 15.8 °F -0.2 °F 10.4 °F 79% 30.18 in 4.0 mi NE 17.3 mph - 0.00 in Snow Light Snow
8:13 PM 15.8 °F 0.3 °F 10.4 °F 79% 30.18 in 2.5 mi NE 16.1 mph - 0.00 in Snow Light Snow
8:24 PM 15.8 °F -0.2 °F 10.4 °F 79% 30.18 in 2.0 mi NE 17.3 mph - 0.00 in Snow Light Snow
8:41 PM 15.8 °F 0.3 °F 10.4 °F 79% 30.19 in 1.5 mi NE 16.1 mph - 0.00 in Snow Light Snow
8:50 PM 15.8 °F 0.9 °F 10.4 °F 79% 30.19 in 2.5 mi NE 15.0 mph - 0.00 in Snow Light Snow
8:53 PM 15.1 °F -0.1 °F 10.0 °F 80% 30.31 in 2.5 mi NE 15.0 mph - 0.00 in Snow Light Snow
9:04 PM 15.8 °F 0.9 °F 10.4 °F 79% 30.20 in 3.0 mi NE 15.0 mph - 0.00 in Snow Light Snow
9:15 PM 14.0 °F -1.4 °F 10.4 °F 86% 30.20 in 3.0 mi NE 15.0 mph - 0.00 in Snow Light Snow
9:53 PM 14.0 °F -0.2 °F 9.0 °F 80% 30.33 in 6.0 mi NNE 12.7 mph - 0.00 in Snow Light Snow
10:53 PM 12.9 °F -2.2 °F 8.1 °F 81% 30.35 in 5.0 mi NNE 13.8 mph - 0.00 in Snow Light Snow
11:40 PM 12.2 °F -3.1 °F 8.6 °F 85% 30.24 in 2.5 mi NE 13.8 mph - 0.00 in Snow Light Snow
11:53 PM 12.0 °F -3.4 °F 8.1 °F 84% 30.36 in 2.5 mi NNE 13.8 mph - 0.00 in Snow Light Snow